Wind_Speed
33 33 34 35 36 36 38 39 40 40 40 40 41 42 42 43 45 46 48 48 49 49 50 50 50 52 53 54 54 53 51 49 48 47 45 43 43 44 45 47 48 48 49 51 52 51 51 51 49 47 46 47 47 46 45 47 48 47 45 43 41 39 38 39 37 34 32 32 31 32 31 29 29 31 31 30 29 29 29 28 25 22 22 22 21
33 32 32 33 34 36 37 38 40 41 41 41 41 42 42 43 44 45 47 48 48 49 49 49 49 50 51 53 54 54 52 49 48 48 48 45 44 44 45 46 47 48 49 51 52 52 51 49 48 47 48 48 47 46 46 47 48 47 45 42 41 39 39 40 38 36 34 32 32 32 32 29 30 31 31 29 29 28 28 26 23 22 21 21 21
35 34 33 32 33 34 35 36 38 39 41 41 41 41 42 43 43 45 46 47 48 48 49 50 50 49 50 51 52 53 53 51 48 48 49 47 46 46 46 47 47 48 49 50 51 51 50 48 47 48 48 46 46 46 47 48 48 46 44 42 41 40 40 40 39 37 34 33 32 33 32 30 30 31 30 29 29 28 27 25 23 22 21 21 20
37 36 35 33 33 34 35 35 36 37 38 39 40 40 41 42 43 44 45 47 48 48 49 50 50 50 50 50 50 51 52 51 49 48 49 49 49 48 48 48 48 48 48 49 49 50 49 48 47 47 47 45 45 46 47 47 46 45 43 42 40 40 41 41 39 37 35 34 33 33 32 30 30 31 29 28 29 28 25 24 23 22 21 20 19
38 38 37 36 35 35 35 36 37 38 38 38 39 39 39 40 41 42 43 45 47 48 49 50 50 51 50 50 50 50 50 50 50 49 49 51 51 50 50 49 50 49 48 47 48 48 48 47 47 47 46 44 44 45 46 47 45 44 43 41 40 41 41 41 39 37 35 34 34 33 31 30 30 30 29 27 28 27 24 23 23 22 21 19 18
39 39 39 39 38 37 37 38 38 40 41 41 40 40 39 39 39 40 41 43 45 47 49 50 50 51 51 50 50 49 49 49 49 49 50 52 53 53 52 51 51 51 49 47 47 47 47 46 47 47 46 45 44 44 45 46 45 44 42 40 40 41 41 41 39 37 36 35 34 33 31 30 30 30 28 27 27 26 24 23 23 22 20 18 17
43 43 42 42 42 41 40 40 40 41 42 43 42 40 39 38 38 38 39 41 42 45 47 49 50 51 51 51 50 49 49 49 49 50 51 53 55 55 54 53 52 52 51 49 47 47 47 46 47 46 45 45 45 44 45 46 45 43 41 39 40 41 41 41 39 37 36 35 35 33 31 30 30 30 28 27 26 24 23 23 22 21 20 18 16
46 46 46 46 45 45 44 43 42 42 43 44 43 41 39 38 38 38 38 38 40 42 44 47 49 50 51 52 51 50 49 49 49 50 52 54 56 57 56 54 53 53 53 51 49 48 48 48 46 46 45 45 45 44 45 46 45 42 40 39 40 41 41 41 39 38 37 36 35 33 31 30 30 30 29 27 25 24 23 22 21 20 20 17 15
47 47 47 47 47 47 46 45 44 44 43 43 42 40 38 37 37 37 37 38 38 39 41 44 48 49 50 51 51 51 50 49 49 51 53 55 57 58 57 56 55 54 54 53 51 50 50 49 47 46 45 45 45 45 46 46 45 42 41 40 41 42 42 41 39 38 37 36 35 34 31 30 29 30 29 27 25 24 23 21 20 20 20 18 16
43 44 45 46 46 46 46 46 45 44 43 42 41 39 37 36 36 36 37 37 38 39 40 42 45 48 49 51 51 51 50 49 49 51 53 54 56 58 59 58 57 56 56 55 53 51 51 50 48 46 46 46 47 47 47 47 45 43 42 42 42 42 42 41 40 39 38 36 35 33 31 29 29 30 29 27 26 24 22 21 20 20 20 19 18
35 38 40 42 43 44 44 44 44 44 43 42 41 39 38 37 36 36 37 37 37 38 39 41 42 45 48 49 51 52 51 49 49 51 53 54 55 56 58 58 58 58 58 57 56 53 52 51 49 47 48 48 48 49 49 47 46 44 44 44 43 42 42 41 40 39 38 36 35 33 30 29 30 30 29 28 26 24 22 21 21 20 20 20 20
31 32 34 37 39 41 42 42 42 43 43 42 41 40 38 38 38 37 37 37 37 38 40 41 42 43 46 48 49 51 51 50 50 51 52 53 54 55 56 56 57 59 60 59 58 56 53 52 50 49 49 49 49 50 50 48 47 46 45 44 44 43 42 41 40 39 37 36 35 32 30 30 30 31 29 27 26 24 22 21 21 20 20 21 21
29 30 31 33 35 37 39 40 40 42 43 43 42 40 39 38 38 38 38 37 37 37 39 41 42 42 44 46 48 49 50 50 50 51 52 53 54 54 54 54 56 58 61 60 60 58 55 53 52 50 50 51 51 51 51 50 49 47 46 45 45 44 42 41 41 39 37 36 34 31 30 30 31 31 30 28 27 24 22 21 21 21 21 21 21
28 29 30 31 32 34 36 38 39 40 42 43 42 41 40 39 38 39 38 38 37 37 38 40 41 42 43 45 46 47 48 49 50 51 52 53 53 53 53 53 54 57 60 61 60 59 57 55 53 52 52 52 53 53 52 51 50 48 47 46 45 44 43 42 41 38 36 35 33 31 30 31 32 31 30 29 26 24 22 22 22 21 21 21 21
29 28 28 29 31 32 34 35 37 38 40 42 41 41 40 40 39 39 39 38 38 38 37 38 39 40 41 43 45 46 47 48 50 51 52 52 53 52 52 53 54 55 57 60 61 60 58 56 55 53 54 54 54 54 53 52 51 49 48 47 46 44 42 41 39 37 36 35 33 31 32 33 33 32 31 28 25 24 23 22 21 21 20 19 20
29 29 29 29 30 31 32 34 35 36 38 39 40 40 40 40 40 40 40 39 39 38 37 36 37 38 38 40 43 45 45 46 48 50 51 51 51 51 51 52 54 55 55 57 60 61 59 58 56 55 55 56 55 54 53 52 52 51 49 47 46 43 41 40 39 38 37 35 34 33 34 34 34 32 30 28 25 23 23 22 20 20 19 19 19
28 29 29 29 29 30 31 32 33 35 35 37 39 40 40 40 39 40 41 40 39 39 37 35 33 34 34 36 39 42 44 45 46 48 50 51 50 50 49 51 53 55 55 55 57 60 61 59 58 56 56 57 56 54 53 53 53 52 50 48 46 44 42 40 39 39 37 36 35 35 34 34 34 32 30 27 24 23 22 21 20 20 20 19 19
27 28 29 29 29 30 30 31 32 33 34 35 36 37 38 38 38 39 40 40 40 40 38 35 32 30 30 31 34 38 41 43 44 46 48 49 49 48 48 49 51 54 55 54 55 58 61 61 59 58 58 59 58 55 53 53 53 52 50 49 48 46 43 41 40 39 38 37 36 35 35 35 33 31 30 27 24 23 22 22 22 22 21 21 21
26 26 27 28 28 29 29 30 30 31 32 33 34 34 35 35 36 38 39 40 40 40 40 38 34 30 28 27 29 33 37 39 41 43 46 47 48 47 47 48 50 52 54 54 54 56 60 62 61 59 60 61 60 57 54 53 53 52 51 51 50 48 44 41 40 39 38 37 36 35 34 34 33 31 30 27 23 23 24 25 25 25 23 22 24
25 25 25 26 27 28 29 29 29 30 30 31 32 33 33 33 34 36 38 39 40 40 40 40 37 32 29 28 27 29 32 35 36 39 42 44 45 45 46 47 48 49 51 53 53 54 58 62 62 61 61 62 62 59 56 54 54 53 53 53 52 48 43 41 40 39 37 36 36 36 35 34 34 33 31 27 23 23 26 28 28 26 25 24 24
23 23 23 24 25 26 27 28 29 30 30 30 30 31 32 33 33 34 36 37 38 39 39 40 38 34 31 29 28 27 29 31 32 34 37 40 42 44 45 45 46 46 47 50 52 53 55 60 62 62 62 63 63 60 57 56 55 55 55 54 51 47 43 42 40 38 37 37 37 37 37 36 35 35 32 28 24 25 28 29 30 29 26 25 24
22 21 21 22 23 24 25 27 29 29 30 30 29 29 30 31 31 32 34 35 36 37 38 38 38 35 32 30 29 27 27 28 29 30 32 35 38 41 43 44 44 44 45 47 50 52 53 57 61 62 63 64 63 60 58 57 57 58 57 55 51 48 46 43 41 39 39 39 39 39 38 37 36 34 32 28 25 26 29 31 31 30 27 25 25
20 20 20 20 21 22 23 25 27 29 30 30 30 29 29 29 30 31 32 33 34 36 36 37 37 36 33 30 29 28 28 27 28 28 28 30 34 38 41 42 42 43 44 45 47 50 51 54 58 61 62 63 63 60 57 57 59 60 59 56 53 51 48 45 42 41 40 40 40 40 39 37 36 34 31 28 26 27 29 31 32 30 27 26 26
19 19 18 19 19 20 21 23 25 27 29 30 31 30 30 29 29 29 31 32 33 34 35 35 35 36 34 31 29 28 28 27 27 26 26 27 30 33 37 39 40 41 42 43 44 47 50 52 55 58 60 61 62 60 57 57 59 60 60 58 55 52 49 46 43 41 40 40 40 40 38 37 35 33 30 27 26 28 30 32 32 30 28 27 27
19 18 17 18 18 19 20 21 23 25 27 29 30 30 30 30 29 29 30 31 32 32 33 34 35 35 35 32 30 28 27 27 27 26 25 25 26 29 33 36 38 39 41 42 43 44 47 50 52 54 56 58 60 59 57 58 59 60 60 59 56 53 51 47 44 42 41 40 39 39 38 36 35 33 30 28 28 30 32 33 34 32 29 29 29
19 18 18 18 19 19 20 21 22 24 26 28 29 30 31 31 30 29 29 30 31 32 32 33 34 35 34 33 31 29 28 27 27 26 25 24 24 26 29 32 35 37 38 40 41 43 45 48 50 50 52 55 58 58 57 57 58 58 59 59 58 55 52 48 45 43 41 39 39 39 38 36 35 33 31 29 29 31 33 35 34 32 30 30 29
20 20 20 20 20 21 22 22 23 24 26 27 28 28 29 30 30 30 30 30 30 30 31 32 32 33 34 33 31 29 28 27 27 26 26 25 24 25 26 29 32 34 36 38 39 41 43 45 46 47 49 52 55 55 54 54 55 57 59 60 59 57 53 49 46 44 42 40 39 39 38 37 36 34 32 30 30 32 34 36 35 33 32 31 31
21 22 22 22 22 23 24 24 25 25 26 27 27 27 27 28 28 29 30 30 30 30 30 30 31 32 33 32 31 30 28 27 27 27 26 25 25 24 25 27 29 32 34 35 36 39 41 42 42 44 47 51 53 53 52 53 54 56 58 58 59 57 53 50 48 47 44 42 41 41 40 39 37 35 33 32 31 32 34 36 35 34 33 33 33
22 23 23 24 23 23 23 24 24 25 25 25 25 25 26 27 26 26 27 29 30 31 31 30 29 30 31 31 31 30 28 26 27 27 26 25 24 24 24 25 26 29 32 33 34 37 40 40 40 42 46 50 52 53 52 52 53 56 57 57 57 56 54 52 51 48 46 44 43 43 42 41 38 36 34 33 32 32 35 36 36 35 35 36 34
23 23 24 24 23 23 22 22 23 24 25 24 23 22 23 24 25 25 24 25 27 30 31 30 29 29 30 30 29 29 29 27 26 26 26 25 24 24 24 24 25 27 29 32 34 36 39 38 38 40 44 48 51 52 52 51 52 54 55 56 56 55 54 52 50 48 46 45 45 44 43 41 39 36 35 33 32 33 35 37 36 36 37 37 34
23 23 23 23 23 22 21 21 21 22 23 23 23 22 21 21 21 23 23 23 24 26 29 30 29 29 29 29 28 28 27 27 26 26 26 25 24 24 24 25 24 25 27 31 33 36 38 37 37 38 41 45 49 51 52 51 51 51 52 53 53 53 52 51 49 47 46 46 45 44 43 41 38 36 35 33 33 34 36 38 38 38 38 37 35
23 22 22 22 22 21 20 20 20 21 21 22 22 23 23 22 21 20 20 21 21 22 25 27 29 29 28 28 29 28 26 25 26 26 26 25 24 24 24 25 25 24 26 30 33 35 36 35 35 37 39 42 46 49 51 51 50 50 50 50 51 51 50 49 48 47 46 45 45 44 42 40 38 36 34 33 34 35 36 38 39 39 39 38 36
22 22 22 22 22 21 20 20 20 20 21 21 22 23 23 24 24 22 20 19 19 19 20 23 26 28 28 27 28 28 27 25 25 26 27 25 24 23 23 24 25 24 25 28 32 34 34 34 34 35 37 40 42 45 47 48 48 48 47 47 48 48 48 47 47 46 45 44 43 42 41 39 37 35 34 34 34 35 36 38 39 39 40 39 37
22 22 22 22 22 22 21 21 21 21 21 22 23 24 24 24 25 25 24 22 20 18 18 19 21 24 26 27 27 27 27 25 23 25 27 26 25 23 23 24 24 25 25 27 29 30 31 32 33 34 35 37 40 42 44 44 45 45 45 44 45 45 45 45 45 44 43 42 42 41 40 39 37 35 35 35 35 36 37 38 39 39 40 39 37
22 22 22 23 23 23 22 22 22 22 22 23 23 24 24 24 24 24 24 25 24 21 19 18 19 22 24 27 29 28 27 26 23 23 25 26 25 23 23 23 24 25 26 27 27 28 28 30 31 32 34 36 38 40 41 42 43 44 43 43 43 44 44 43 42 41 41 41 40 40 39 38 36 35 35 35 35 36 37 38 39 39 39 38 37
22 22 23 23 23 23 23 23 23 23 23 24 24 24 24 24 24 23 23 23 24 24 22 20 19 20 22 24 28 28 28 27 25 22 23 25 25 24 22 22 24 25 26 27 28 28 28 29 30 31 32 35 37 38 40 41 42 42 43 43 42 42 41 41 40 39 40 40 39 39 39 38 36 36 35 35 35 35 36 37 38 39 39 38 37
24 24 24 24 25 24 24 24 24 24 24 25 25 25 25 24 24 23 23 23 24 24 24 22 20 20 20 21 24 25 26 27 27 24 22 23 24 23 22 22 23 25 26 28 29 30 31 31 31 31 32 34 36 38 39 40 41 41 42 41 40 40 40 39 39 39 39 39 39 39 38 37 36 35 35 35 34 35 35 36 38 39 40 39 38
26 26 26 27 27 26 26 26 25 25 25 25 26 26 26 26 25 25 25 25 25 25 25 24 22 21 20 20 21 22 23 25 27 25 22 22 23 23 22 21 23 25 27 28 29 30 32 33 34 33 34 35 37 38 39 39 39 40 40 40 39 39 39 39 39 40 40 40 39 38 37 36 35 35 34 34 34 34 35 36 38 40 41 40 39
27 28 28 28 28 28 28 28 28 27 27 26 26 27 27 27 27 26 26 27 27 26 26 25 23 23 22 21 20 20 21 23 25 25 22 20 21 22 21 21 23 25 27 28 29 30 32 33 35 35 35 36 37 37 38 38 38 39 40 40 40 40 41 41 41 41 41 41 40 38 36 35 34 33 33 33 32 33 34 36 38 40 40 39 38
29 29 29 29 29 30 30 30 30 29 29 28 27 27 28 28 28 27 27 28 28 28 27 25 24 23 22 21 20 20 19 20 22 23 22 20 20 20 20 21 22 25 27 28 29 31 31 32 34 35 35 35 36 37 37 38 38 39 39 40 40 41 42 42 42 42 42 41 39 38 36 34 33 32 32 31 31 32 33 34 35 37 37 37 36
29 30 29 29 30 30 30 31 31 31 31 31 30 29 28 28 28 28 27 28 29 28 27 26 25 23 22 21 20 20 19 18 19 20 20 19 18 18 19 21 22 24 27 29 30 31 31 32 32 33 34 34 35 36 37 39 40 40 41 41 42 42 42 42 42 42 41 40 39 37 36 34 33 32 31 31 31 31 32 33 34 35 36 36 36
30 30 30 30 30 30 31 31 31 31 31 31 31 30 28 27 27 27 27 27 29 29 28 26 25 24 22 21 20 20 19 17 17 18 18 18 18 17 18 20 23 24 26 28 30 31 31 32 32 32 32 33 34 36 37 39 40 41 42 43 44 44 44 43 42 42 41 40 38 37 36 35 34 32 31 31 32 33 34 35 35 36 36 37 37
31 31 31 30 30 30 30 30 30 30 30 30 30 29 27 25 24 24 25 26 27 28 28 27 25 24 22 21 20 20 19 17 17 17 17 17 17 16 16 18 22 25 27 28 30 31 31 32 32 32 32 32 33 34 36 38 39 41 43 44 45 45 45 44 43 42 42 40 39 38 37 37 36 35 34 34 35 36 37 37 37 37 37 36 36
33 32 32 30 30 29 29 29 29 29 28 28 28 27 25 23 22 21 22 23 24 26 27 27 25 23 21 20 20 20 19 18 17 17 17 16 16 16 16 16 19 23 27 29 30 31 32 32 32 32 32 32 33 33 34 36 37 40 42 44 45 46 46 46 45 44 43 42 41 41 40 39 39 38 37 37 38 39 39 39 39 39 39 38 37
32 31 30 29 28 27 27 27 27 26 26 25 25 24 22 21 20 19 19 19 21 23 25 25 24 22 20 19 19 20 20 18 17 17 18 16 15 15 16 16 16 19 24 28 30 31 32 32 32 32 31 32 32 33 34 35 36 37 39 41 43 45 46 46 46 45 44 44 44 43 42 41 40 40 39 39 40 41 42 42 41 40 40 39 37
29 28 27 26 25 25 25 25 25 24 24 23 22 21 20 19 18 17 16 17 18 20 21 22 22 21 19 18 18 19 19 18 17 17 18 18 16 14 15 15 15 17 20 25 29 31 32 33 32 32 32 32 32 33 34 35 36 36 37 39 41 43 44 44 45 45 45 46 45 45 45 43 42 41 40 39 39 40 40 40 39 37 36 34 33
25 25 24 23 23 23 23 23 23 22 21 20 20 19 19 17 15 15 15 15 16 17 18 19 20 20 19 18 17 18 18 18 17 16 17 18 18 16 13 13 15 16 18 22 26 30 32 33 33 33 32 33 33 33 34 35 36 37 38 39 41 42 43 44 44 44 45 46 45 45 45 44 43 41 40 40 39 39 38 37 36 34 32 31 30
22 21 21 21 21 21 22 22 22 21 20 19 19 18 16 14 13 13 14 14 15 15 16 17 18 19 18 17 17 17 17 17 17 16 16 17 19 18 15 13 13 14 16 19 23 27 30 32 34 34 33 33 33 34 35 35 36 37 39 40 41 41 42 43 43 44 45 45 45 44 44 44 43 41 40 39 38 37 36 36 35 33 32 31 30
19 19 19 19 19 20 20 20 20 19 19 18 17 15 12 12 12 12 13 13 14 15 15 16 17 17 16 16 15 16 16 16 16 16 16 16 17 18 17 14 13 13 14 16 20 23 27 30 32 34 34 34 34 34 34 35 37 38 39 40 40 41 41 42 43 44 44 45 44 44 43 43 42 41 40 39 37 36 35 35 34 32 31 31 29
19 19 18 18 18 18 18 18 18 18 18 17 15 12 11 11 12 12 12 12 13 14 14 15 16 16 15 14 13 14 14 15 15 15 16 16 16 17 17 16 14 13 13 14 17 20 24 27 29 32 34 35 35 34 34 35 36 37 38 39 40 40 40 41 42 43 44 44 44 44 44 43 42 41 40 39 37 36 35 34 33 32 31 30 29
21 20 19 18 17 17 17 17 16 16 16 16 14 12 12 12 12 12 12 12 12 13 14 15 16 16 15 14 12 12 12 13 13 14 15 15 16 16 17 17 15 14 13 13 14 17 21 24 27 29 32 34 35 35 35 35 35 36 37 38 40 40 40 41 42 42 43 44 44 44 44 43 41 40 38 37 35 34 32 31 31 30 30 29 28
Wind_Direction
279 277 275 271 269 266 265 264 265 266 266 266 265 264 263 261 259 258 257 256 254 253 251 251 251 250 250 250 251 253 253 252 253 252 249 247 247 248 250 251 252 252 252 252 253 254 254 254 255 255 254 255 254 254 253 249 246 245 246 247 248 248 249 251 255 258 260 263 267 270 273 276 280 283 288 294 298 300 298 298 300 296 292 292 291
279 279 278 276 273 271 269 267 267 268 268 269 268 267 265 264 262 260 258 257 257 255 253 252 252 251 250 250 250 251 252 251 251 251 251 247 245 246 247 249 250 251 251 251 252 253 254 255 255 254 253 255 256 256 253 248 245 244 244 245 247 247 247 250 254 256 259 262 266 269 272 275 279 283 288 294 297 298 297 297 296 292 289 289 288
277 278 279 279 279 277 274 271 270 269 269 270 270 270 269 267 265 263 261 259 258 257 256 254 253 253 252 250 250 250 250 250 249 248 249 249 246 246 247 247 248 249 250 250 251 252 253 255 255 253 253 254 254 255 253 248 244 243 242 243 245 245 246 249 253 255 258 261 264 267 271 274 278 282 288 293 296 296 294 295 294 288 285 286 286
275 276 277 279 281 281 280 277 274 272 272 272 272 272 271 269 267 266 264 261 259 258 258 256 255 254 253 251 251 250 250 250 248 246 246 247 246 246 248 248 248 248 250 250 250 250 251 253 254 252 252 252 251 251 251 247 244 242 241 242 243 243 245 248 251 254 257 260 262 266 269 273 277 282 288 292 294 294 292 292 291 285 283 284 284
272 274 276 277 279 281 282 282 280 278 277 277 276 275 274 272 269 267 265 264 262 260 258 258 256 255 254 253 252 251 250 250 248 245 243 244 244 245 247 248 249 249 250 250 249 247 247 249 250 250 250 250 249 248 248 246 242 239 239 241 242 243 245 248 250 253 256 259 261 264 267 272 276 280 286 290 291 291 290 289 287 283 281 281 280
270 272 274 275 277 279 280 283 284 284 282 281 280 278 276 274 271 269 267 265 263 261 260 258 257 255 254 253 252 251 251 250 247 244 243 242 242 242 244 246 248 248 249 250 249 246 246 247 247 247 248 247 246 246 245 243 240 238 238 239 241 244 245 247 249 252 254 257 260 263 266 270 275 279 284 288 289 288 288 287 285 281 280 278 276
271 272 272 273 275 276 278 280 283 284 285 284 282 280 278 275 273 271 269 266 264 263 261 259 258 256 255 254 253 252 251 250 247 244 243 242 241 241 242 243 245 247 247 248 248 247 246 245 245 246 246 246 245 243 242 240 239 239 238 239 241 244 245 246 248 250 253 256 259 262 265 268 273 278 283 286 287 286 285 285 283 279 277 274 270
273 273 273 273 273 274 276 278 281 282 283 283 283 281 279 277 275 273 271 269 266 263 261 259 258 257 256 254 253 252 251 250 248 245 243 243 241 240 240 241 243 245 246 246 247 247 246 244 244 244 244 244 243 241 239 238 239 240 238 239 241 243 244 245 247 249 252 255 257 260 263 266 272 277 281 285 286 283 282 281 278 274 271 268 263
274 273 273 273 272 273 273 274 276 278 280 281 282 281 280 278 277 276 274 272 270 267 263 260 258 257 256 255 254 253 251 250 250 247 245 244 243 242 241 240 241 242 243 244 244 245 245 244 243 242 241 241 240 238 236 237 239 239 238 238 240 242 243 244 246 248 251 253 256 259 262 266 271 275 280 284 284 280 279 277 273 269 265 261 255
274 274 273 273 272 272 272 272 272 273 276 278 279 280 280 279 278 278 277 276 275 273 269 264 260 257 256 255 254 254 252 251 250 250 248 247 246 245 243 241 240 241 241 241 242 243 244 243 242 241 239 238 238 236 236 236 238 237 236 237 238 240 242 243 245 248 250 253 255 258 262 266 270 274 278 281 281 278 274 272 269 265 260 254 249
277 276 275 274 273 272 271 270 269 269 272 275 276 278 280 280 280 279 279 278 278 277 274 269 263 258 256 255 254 253 253 251 251 251 251 250 249 248 246 244 242 240 240 240 240 241 243 243 242 239 237 236 236 236 235 236 236 235 235 236 237 239 241 242 245 247 249 252 254 257 261 265 269 272 276 279 279 274 269 268 266 262 255 249 246
284 282 279 276 274 273 272 270 268 267 269 271 272 274 276 279 280 279 279 279 279 278 277 273 268 262 257 255 254 253 252 251 251 252 252 252 252 251 250 247 245 242 240 239 239 239 240 241 240 238 236 235 235 235 235 235 235 234 234 235 237 239 241 243 245 247 249 251 253 257 261 264 268 271 274 276 274 270 267 265 262 259 252 246 243
289 289 287 283 279 276 274 272 269 267 267 268 269 270 271 274 277 278 278 279 279 278 277 275 272 266 260 255 253 252 251 250 249 251 252 252 253 253 252 250 248 245 242 240 239 238 238 239 239 237 235 234 234 235 235 234 234 234 234 235 237 239 240 242 244 246 247 250 253 256 260 263 266 269 271 272 271 269 265 261 258 255 250 245 243
293 293 293 291 288 284 280 277 273 269 268 268 268 269 268 270 272 274 276 278 278 277 276 275 272 268 263 257 253 251 251 249 248 249 251 252 253 254 254 252 249 247 244 241 239 238 238 238 237 236 234 233 234 234 233 233 234 234 234 235 236 238 240 241 244 246 248 250 253 256 259 261 263 265 268 270 270 266 261 255 252 250 247 244 243
296 297 297 296 294 292 288 284 280 275 270 269 269 269 268 267 268 270 274 276 277 277 276 274 271 268 265 260 255 251 249 248 248 248 250 252 253 254 254 253 250 248 246 243 240 237 236 236 236 234 233 232 233 233 233 233 234 234 234 235 236 237 239 242 244 247 248 249 251 254 256 258 260 262 266 269 266 262 257 252 248 247 244 241 241
296 299 301 301 299 297 295 291 287 282 276 271 269 268 268 267 266 267 270 273 275 277 278 276 272 267 264 262 257 252 248 247 247 247 248 251 253 254 254 253 252 249 247 245 242 238 236 235 235 233 231 231 231 232 232 232 233 234 234 235 236 237 239 241 243 245 245 246 248 251 253 256 258 261 265 267 263 258 252 246 242 242 241 239 239
295 298 301 303 302 301 298 296 293 289 282 275 269 266 266 265 265 264 266 268 271 275 278 278 275 269 265 263 260 256 250 247 245 245 246 249 251 253 254 253 252 250 248 247 244 240 236 235 234 232 230 230 229 229 230 230 231 232 233 234 235 236 237 239 241 243 244 245 247 249 252 255 257 260 264 264 260 252 245 238 235 236 237 239 241
293 296 299 301 303 302 301 299 296 293 289 281 273 266 263 262 263 263 263 264 267 272 276 277 277 275 270 266 264 260 254 249 246 244 244 246 249 251 253 253 252 250 249 247 245 241 238 235 234 231 230 229 228 227 228 229 229 230 231 232 234 235 236 236 239 241 243 244 246 248 251 254 257 260 262 261 255 246 237 230 228 230 234 238 242
291 293 296 299 301 302 302 301 298 295 291 286 279 272 265 261 260 261 261 261 263 268 273 275 277 279 278 274 269 264 258 253 249 246 245 245 247 248 250 251 251 250 249 247 245 242 239 236 234 232 230 229 227 226 226 227 228 228 229 231 234 235 235 235 238 241 243 245 247 249 251 253 255 257 257 255 249 239 230 225 226 230 235 239 245
289 292 295 298 301 303 303 302 300 297 293 289 284 278 271 266 261 259 258 258 260 264 269 273 276 280 282 280 276 270 264 258 253 250 247 246 246 246 247 249 249 249 248 247 245 243 240 238 235 233 231 230 228 225 225 226 227 227 227 230 233 234 234 235 237 240 242 244 246 247 248 249 250 252 252 250 242 233 227 225 226 231 236 242 248
288 292 296 299 302 304 304 303 302 301 297 293 288 283 277 272 266 260 257 256 257 260 265 269 274 279 281 282 280 277 271 264 257 253 251 249 248 246 246 247 248 247 247 246 245 243 241 239 237 234 232 232 230 226 225 225 226 226 227 229 231 233 233 233 235 238 240 241 243 244 245 246 247 249 250 248 239 229 225 225 227 231 236 243 247
288 292 297 301 304 306 306 305 304 303 302 300 296 290 284 279 273 267 262 257 255 258 261 265 270 276 279 281 281 281 278 271 263 257 255 253 251 248 246 245 246 246 245 244 244 243 242 240 239 236 234 233 232 228 225 225 225 226 226 228 229 230 231 231 232 234 236 238 240 242 243 244 246 248 250 248 239 228 224 224 227 231 236 241 243
287 292 296 301 304 307 308 307 306 304 304 304 302 298 292 285 280 274 268 262 257 256 257 260 266 272 276 279 281 283 282 278 271 263 259 258 256 252 248 245 244 245 244 243 242 242 242 241 240 238 236 235 234 231 226 225 225 226 227 227 228 229 230 229 230 231 234 237 239 241 242 243 245 247 248 247 240 229 225 226 228 230 234 238 238
286 291 297 300 303 307 308 309 309 307 306 306 306 304 300 293 286 280 274 268 262 257 256 257 261 267 273 276 279 282 283 282 277 270 264 261 259 257 253 248 244 244 244 243 241 241 241 241 240 239 237 237 237 234 229 226 225 226 227 227 228 229 230 230 230 232 234 237 239 241 242 243 245 246 246 244 238 230 226 226 227 229 232 235 235
286 291 295 296 299 302 305 308 310 311 310 310 309 309 306 301 294 286 279 273 267 262 258 257 258 262 268 272 275 278 281 283 281 276 269 263 261 259 256 251 246 243 243 243 241 240 240 240 240 239 238 238 238 237 232 227 225 226 227 228 229 230 231 231 232 233 235 238 241 242 243 243 244 244 243 240 236 230 227 226 226 228 230 232 232
287 291 293 293 294 296 299 304 307 310 311 312 312 313 311 308 303 295 285 277 271 267 262 259 258 259 263 268 272 275 278 282 283 279 273 265 260 258 256 252 247 243 241 241 241 240 239 239 239 239 238 238 238 237 234 230 226 226 226 227 229 230 231 231 233 235 237 239 241 241 241 241 241 241 240 239 235 230 227 226 226 227 228 229 229
289 291 292 292 292 292 294 298 301 305 308 310 312 314 314 313 311 304 294 283 276 270 267 264 261 259 260 263 267 271 276 280 282 281 276 269 262 257 254 252 248 243 240 240 240 240 240 239 239 239 238 237 237 237 235 231 227 226 226 227 228 230 231 232 234 236 238 239 239 239 238 238 238 238 238 237 235 231 228 226 225 225 225 226 226
291 293 294 295 294 294 295 296 298 301 305 308 311 312 314 315 314 311 304 294 283 274 269 268 267 263 260 260 262 266 271 277 281 280 278 273 267 260 254 251 248 244 240 238 237 239 239 239 238 238 237 235 235 235 234 231 227 225 225 226 228 229 230 231 232 233 234 234 235 234 234 234 235 235 235 234 233 231 229 227 225 223 222 224 225
292 294 297 299 300 300 299 298 299 302 305 308 309 311 314 316 316 315 311 304 295 284 274 269 269 266 262 260 261 263 265 270 276 279 279 276 272 265 257 251 247 243 239 235 234 236 238 237 237 237 236 235 234 233 232 230 227 225 224 225 226 227 229 230 231 232 232 232 232 231 231 231 232 232 232 232 232 230 229 227 224 221 221 222 224
290 293 297 301 303 304 303 301 302 304 307 307 307 308 311 315 317 316 313 308 303 296 286 277 273 269 264 260 260 263 265 267 270 274 277 277 274 269 261 253 246 242 238 233 231 233 235 235 235 236 236 235 234 232 232 231 229 227 225 224 224 225 226 228 229 229 229 230 231 230 229 230 230 231 231 231 231 230 229 226 223 221 221 223 224
288 291 295 300 304 306 305 304 304 305 306 307 306 306 306 308 313 315 314 309 304 301 295 288 280 274 269 263 259 259 263 268 270 271 273 274 274 271 265 256 247 241 236 233 231 232 233 232 233 235 236 235 235 233 231 231 230 229 227 226 225 224 225 225 226 226 227 228 229 227 227 228 230 230 230 230 231 230 229 227 223 221 220 222 223
289 291 294 298 303 305 306 306 305 305 305 305 306 307 306 306 307 310 312 310 304 300 298 294 287 280 275 269 262 258 259 264 269 271 272 272 272 271 267 259 249 240 235 233 231 232 232 230 230 233 235 235 235 234 232 231 230 229 228 227 226 225 225 225 225 225 226 227 227 226 226 227 228 229 228 229 229 230 229 228 225 222 220 221 221
291 293 295 297 300 303 305 305 305 305 304 304 305 308 309 309 308 307 309 309 305 298 296 296 292 287 280 275 267 260 257 261 266 269 270 270 270 270 268 263 253 242 237 235 233 231 230 229 228 230 233 234 235 235 234 233 231 230 228 227 227 226 226 225 224 225 225 225 225 225 225 226 227 227 227 228 228 229 229 228 226 223 221 221 221
294 295 297 298 300 301 303 304 305 305 305 305 305 307 309 310 309 309 309 310 308 299 288 287 290 289 285 279 273 265 258 258 264 269 269 268 268 268 267 264 255 243 237 238 237 232 229 228 227 227 229 232 233 233 233 232 231 229 227 225 224 223 223 223 224 225 225 224 223 223 224 225 225 226 227 227 228 228 228 227 225 223 222 221 221
294 297 299 300 301 302 303 303 304 304 305 305 305 306 308 309 309 308 308 310 312 310 298 286 282 285 284 280 276 270 261 257 261 268 269 267 266 265 264 262 256 244 234 235 239 236 231 228 227 225 226 228 230 231 231 230 229 227 225 222 220 220 220 221 222 223 223 223 222 222 223 223 224 224 225 226 227 228 228 226 224 222 220 220 221
293 295 298 300 301 303 304 304 304 303 303 303 304 304 306 307 308 309 310 310 311 313 312 302 289 283 282 280 277 273 266 260 260 266 270 267 264 263 262 259 255 245 234 229 232 235 233 229 227 224 223 224 226 228 229 228 227 225 223 220 219 218 218 219 219 219 220 221 221 221 222 222 223 223 223 224 226 227 228 227 224 220 218 218 219
292 293 295 296 298 301 303 304 304 304 302 302 302 303 303 305 307 310 312 312 311 311 313 312 303 289 281 279 277 275 270 264 262 267 272 268 262 261 260 257 252 246 236 227 225 228 229 227 225 223 222 223 224 226 227 227 226 224 220 218 216 216 216 215 215 216 218 218 219 220 221 221 222 222 223 223 223 224 224 224 222 219 217 217 217
291 292 293 294 295 298 300 302 303 303 302 302 302 302 302 303 304 307 311 313 313 311 310 312 311 300 288 280 277 274 270 265 262 265 271 269 262 258 257 254 249 243 237 229 224 224 225 225 223 221 221 222 222 223 224 224 224 222 218 215 213 213 213 213 213 215 216 217 218 218 219 220 221 221 222 223 223 222 221 220 219 218 217 217 217
291 293 293 294 295 297 298 300 300 301 301 301 301 301 301 302 302 305 308 310 312 311 308 307 310 307 298 289 282 275 269 263 261 263 269 269 262 256 254 252 247 241 235 230 226 224 225 225 224 222 220 220 220 220 219 219 219 218 216 213 211 211 211 212 212 214 215 215 216 216 217 219 220 220 221 222 222 221 220 219 219 219 219 218 217
291 292 293 293 295 296 298 299 300 300 301 301 301 300 300 300 300 302 305 307 309 310 307 304 305 306 303 296 290 283 274 264 259 261 267 268 261 254 250 248 245 241 235 229 226 225 225 226 226 224 222 219 218 217 216 214 213 213 213 211 210 211 212 213 213 214 214 215 215 214 215 216 218 219 220 220 219 219 219 219 219 219 218 217 216
291 292 292 293 293 295 297 298 299 300 300 301 301 300 299 299 298 299 302 304 306 307 306 303 302 304 303 298 294 290 282 270 260 259 264 267 263 256 249 243 241 239 235 229 226 224 223 223 224 224 222 220 218 216 215 214 212 211 211 210 210 211 212 213 214 215 215 215 213 212 212 214 216 217 218 217 216 216 216 217 217 216 215 214 214
290 291 291 292 293 293 295 297 298 299 299 299 300 299 298 297 295 296 299 301 302 304 305 301 298 300 301 297 292 290 286 276 263 258 261 264 264 262 254 243 237 236 234 230 226 224 222 221 221 222 222 221 219 218 217 216 214 212 211 211 210 210 211 212 213 215 215 214 212 210 210 213 215 216 215 214 213 213 212 212 213 212 212 212 215
290 290 291 291 292 292 294 295 297 297 297 296 296 296 295 293 291 291 294 296 298 301 301 298 296 297 298 294 289 286 284 277 264 258 259 261 262 262 260 249 239 234 232 230 227 224 222 222 222 222 222 221 220 220 218 217 216 215 213 212 211 211 210 211 212 213 213 212 211 209 210 211 213 213 212 211 211 211 211 210 211 212 212 214 219
290 291 291 292 292 293 294 295 294 293 293 294 293 292 290 287 284 284 288 292 294 296 297 295 294 294 293 291 286 282 279 276 266 257 255 259 260 258 258 254 243 235 232 230 228 225 223 222 222 222 221 220 220 220 219 218 217 217 216 214 213 211 210 210 210 210 210 210 210 209 210 211 211 211 211 210 209 210 211 211 213 214 215 217 221
290 291 292 292 293 293 293 292 291 290 291 292 292 289 286 282 278 279 283 288 290 292 294 294 295 295 293 289 284 279 275 274 268 258 253 256 260 257 253 253 248 238 231 230 229 227 224 222 222 221 220 220 219 218 219 219 218 217 216 216 215 214 213 211 210 208 208 209 209 209 210 211 211 211 210 210 209 210 212 215 216 217 218 220 223
291 292 292 291 291 291 290 289 288 289 290 291 289 286 284 281 278 277 281 285 288 291 293 295 296 297 295 290 284 279 274 271 268 261 253 252 257 259 252 249 248 242 232 228 228 228 226 223 222 220 220 219 219 218 217 217 217 217 216 215 215 215 214 213 211 209 209 209 210 209 209 210 211 211 211 210 210 210 212 215 217 218 219 220 222
295 294 292 289 288 287 286 286 286 287 288 288 287 285 283 279 275 275 279 284 289 292 296 299 300 300 298 292 285 281 276 270 267 263 255 250 253 258 256 249 247 245 237 228 226 227 227 225 223 221 220 219 219 218 217 217 216 216 215 214 214 214 213 212 212 211 211 211 211 210 208 208 209 210 210 210 210 210 211 212 213 214 214 214 215
301 297 292 289 286 284 284 285 286 287 286 286 286 284 278 272 269 273 280 286 290 294 298 303 305 305 301 294 288 284 280 274 268 264 259 252 250 252 256 253 248 246 243 234 226 225 226 226 224 222 220 220 219 219 218 217 216 216 215 214 213 213 213 212 212 212 212 212 210 209 207 206 206 205 205 205 206 206 207 207 208 208 209 209 210
304 301 296 292 288 286 285 286 287 287 287 287 283 276 267 263 267 274 281 286 292 295 299 304 309 311 308 301 293 288 284 279 272 267 262 257 250 248 250 252 249 247 248 242 232 225 224 225 224 222 220 219 219 219 218 217 216 216 216 215 214 212 212 212 212 211 211 210 208 206 203 202 200 198 198 199 200 201 203 204 205 206 208 209 210
303 303 302 298 294 290 289 288 288 288 287 284 275 263 257 260 267 273 281 288 294 298 301 303 308 314 316 312 304 296 290 284 277 271 266 262 255 248 245 246 246 246 247 247 240 230 224 223 223 222 220 219 219 219 219 218 217 216 216 216 215 213 211 210 209 208 207 206 204 201 198 197 196 195 196 197 199 200 202 203 205 206 207 209 209
295 298 300 301 300 296 293 291 290 288 284 277 266 256 256 262 268 273 280 287 293 299 302 303 304 309 316 320 319 313 303 292 283 275 270 266 261 253 246 243 242 241 242 246 245 237 228 222 221 221 220 219 219 219 219 218 218 216 215 215 215 213 211 208 205 203 202 200 198 196 194 195 195 195 196 198 199 200 201 202 204 205 206 208 208
Height
2993 2993 2994 2994 2995 2995 2996 2996 2996 2997 2997 2998 2999 3000 3002 3003 3004 3005 3006 3007 3008 3009 3011 3012 3014 3015 3017 3018 3020 3021 3023 3025 3026 3027 3029 3031 3032 3034 3036 3038 3039 3041 3043 3045 3047 3050 3051 3053 3055 3057 3058 3058 3060 3062 3063 3064 3066 3068 3071 3073 3077 3079 3080 3080 3081 3082 3083 3084 3083 3083 3082 3082 3081 3079 3078 3077 3077 3075 3074 3073 3071 3069 3068 3067 3067
2989 2989 2989 2990 2990 2990 2991 2991 2992 2992 2992 2993 2994 2995 2996 2997 2998 2999 3000 3001 3002 3003 3004 3006 3007 3008 3010 3011 3013 3014 3016 3019 3020 3021 3022 3024 3026 3027 3030 3032 3034 3036 3037 3039 3041 3044 3046 3048 3050 3052 3053 3054 3056 3057 3058 3059 3060 3063 3066 3069 3072 3074 3075 3076 3076 3078 3079 3080 3080 3079 3078 3078 3077 3075 3074 3074 3073 3072 3070 3069 3068 3067 3065 3065 3064
2985 2985 2985 2985 2985 2986 2986 2986 2987 2987 2987 2988 2988 2989 2990 2991 2992 2993 2994 2995 2996 2998 2998 2999 3001 3002 3003 3004 3006 3008 3009 3012 3014 3015 3016 3017 3019 3020 3023 3025 3027 3030 3031 3033 3035 3037 3040 3042 3045 3046 3048 3050 3051 3052 3052 3053 3055 3058 3062 3065 3067 3069 3071 3071 3072 3073 3074 3075 3076 3075 3075 3074 3073 3071 3071 3070 3069 3068 3067 3066 3065 3064 3063 3062 3062
2981 2981 2981 2981 2981 2981 2981 2982 2982 2983 2983 2983 2983 2984 2985 2985 2986 2987 2988 2989 2990 2991 2992 2993 2994 2996 2997 2998 2999 3001 3002 3004 3007 3009 3011 3011 3012 3014 3016 3018 3020 3023 3026 3028 3030 3031 3034 3037 3039 3041 3043 3045 3046 3046 3047 3048 3051 3054 3057 3060 3062 3064 3066 3066 3067 3069 3070 3071 3072 3072 3071 3070 3069 3068 3067 3067 3066 3065 3064 3063 3062 3061 3060 3060 3059
2977 2977 2977 2977 2977 2977 2977 2977 2977 2978 2978 2979 2979 2979 2979 2980 2980 2981 2982 2982 2984 2985 2986 2987 2988 2989 2991 2992 2993 2994 2996 2998 3000 3002 3004 3005 3006 3007 3009 3011 3014 3016 3019 3022 3024 3026 3028 3031 3033 3035 3037 3038 3040 3041 3042 3044 3047 3050 3052 3055 3057 3059 3060 3061 3063 3064 3065 3066 3067 3067 3067 3067 3065 3064 3064 3064 3063 3061 3061 3059 3058 3057 3057 3057 3057
2973 2973 2973 2972 2973 2973 2972 2972 2972 2972 2973 2974 2974 2974 2974 2974 2975 2975 2975 2976 2977 2978 2979 2980 2981 2983 2984 2986 2987 2988 2989 2991 2993 2995 2997 2999 2999 3001 3002 3004 3007 3009 3012 3015 3018 3020 3023 3025 3027 3029 3030 3032 3034 3036 3037 3039 3042 3045 3047 3050 3052 3054 3055 3057 3058 3059 3060 3061 3062 3063 3063 3063 3061 3060 3060 3060 3059 3058 3057 3056 3055 3054 3054 3055 3055
2969 2969 2969 2969 2968 2968 2968 2968 2968 2967 2968 2968 2969 2969 2969 2969 2969 2969 2969 2970 2971 2972 2972 2974 2975 2976 2977 2979 2980 2981 2983 2984 2986 2988 2990 2991 2993 2994 2996 2998 3000 3003 3006 3009 3011 3014 3016 3019 3021 3023 3024 3026 3029 3031 3033 3034 3037 3040 3043 3045 3047 3049 3050 3052 3053 3054 3055 3056 3057 3058 3059 3058 3057 3056 3056 3056 3056 3055 3054 3053 3053 3052 3052 3052 3053
2963 2964 2964 2964 2964 2964 2964 2963 2963 2963 2962 2963 2963 2964 2964 2964 2963 2963 2964 2964 2964 2965 2966 2967 2968 2969 2970 2972 2973 2975 2976 2978 2980 2981 2982 2984 2985 2987 2989 2991 2993 2995 2999 3002 3005 3007 3010 3012 3014 3017 3019 3021 3023 3026 3028 3029 3032 3035 3038 3040 3042 3044 3046 3047 3049 3049 3050 3052 3053 3054 3054 3054 3052 3052 3052 3052 3052 3052 3051 3050 3050 3049 3049 3050 3051
2958 2958 2958 2958 2959 2959 2959 2959 2959 2958 2958 2958 2958 2958 2958 2958 2958 2958 2958 2958 2958 2959 2959 2960 2961 2962 2964 2965 2966 2968 2969 2971 2973 2974 2975 2976 2978 2979 2982 2984 2985 2988 2991 2994 2998 3001 3003 3005 3008 3011 3013 3015 3018 3020 3022 3024 3026 3029 3033 3035 3037 3039 3041 3042 3044 3044 3046 3047 3048 3049 3049 3049 3048 3048 3048 3048 3048 3048 3048 3047 3047 3046 3046 3047 3048
2953 2952 2952 2952 2952 2953 2954 2954 2954 2954 2953 2953 2953 2953 2953 2953 2953 2953 2953 2953 2953 2953 2953 2954 2954 2955 2956 2958 2959 2960 2962 2965 2966 2968 2969 2969 2970 2972 2974 2977 2979 2980 2983 2986 2990 2993 2996 2999 3003 3006 3008 3010 3011 3014 3016 3018 3021 3025 3027 3030 3032 3034 3036 3037 3039 3040 3041 3043 3044 3045 3045 3045 3044 3044 3044 3045 3045 3045 3045 3044 3044 3044 3044 3045 3046
2948 2947 2947 2947 2946 2947 2947 2948 2949 2949 2949 2948 2948 2948 2948 2948 2948 2948 2948 2948 2947 2947 2947 2948 2948 2949 2950 2951 2952 2953 2956 2958 2960 2961 2962 2963 2964 2965 2967 2970 2972 2973 2975 2978 2982 2985 2989 2992 2996 2999 3002 3003 3005 3008 3011 3013 3016 3019 3022 3024 3026 3028 3030 3032 3034 3035 3037 3039 3040 3041 3041 3041 3040 3040 3041 3041 3042 3042 3041 3041 3041 3041 3042 3042 3044
2944 2943 2942 2942 2941 2941 2941 2942 2942 2943 2943 2943 2943 2943 2943 2942 2943 2943 2943 2942 2942 2942 2942 2941 2942 2942 2943 2944 2945 2947 2949 2951 2953 2954 2955 2956 2957 2958 2960 2963 2966 2967 2968 2970 2974 2978 2981 2985 2989 2992 2995 2998 3000 3002 3005 3008 3011 3014 3016 3019 3021 3023 3025 3027 3029 3031 3033 3035 3036 3037 3037 3037 3036 3037 3037 3038 3038 3038 3038 3038 3038 3038 3039 3040 3041
2940 2939 2938 2937 2936 2936 2935 2935 2936 2937 2937 2938 2938 2938 2938 2937 2938 2938 2937 2937 2937 2937 2936 2936 2936 2936 2936 2937 2938 2940 2942 2944 2946 2947 2948 2950 2951 2952 2954 2956 2959 2961 2962 2964 2967 2970 2974 2978 2981 2985 2988 2991 2994 2996 2999 3003 3005 3008 3011 3013 3015 3017 3020 3022 3025 3027 3029 3030 3032 3033 3033 3033 3033 3033 3033 3034 3035 3035 3035 3035 3035 3035 3037 3037 3038
2936 2935 2934 2933 2932 2931 2930 2930 2930 2930 2931 2931 2932 2932 2932 2932 2933 2933 2933 2932 2932 2932 2931 2931 2930 2930 2930 2930 2931 2933 2935 2936 2938 2940 2941 2943 2944 2946 2948 2950 2952 2954 2956 2958 2960 2964 2967 2971 2974 2978 2981 2985 2988 2990 2994 2997 3000 3003 3005 3007 3009 3012 3015 3018 3020 3023 3025 3026 3028 3028 3028 3029 3029 3029 3029 3030 3031 3032 3032 3031 3032 3033 3034 3035 3036
2932 2931 2930 2929 2928 2926 2925 2925 2924 2924 2925 2925 2926 2926 2927 2927 2927 2928 2928 2927 2927 2927 2926 2926 2925 2924 2924 2924 2924 2926 2928 2929 2931 2933 2934 2936 2937 2939 2941 2943 2945 2947 2949 2952 2954 2957 2961 2964 2967 2971 2974 2977 2981 2985 2988 2992 2995 2997 3000 3002 3005 3008 3010 3014 3016 3019 3021 3022 3023 3023 3024 3024 3025 3025 3026 3027 3028 3028 3028 3028 3028 3030 3031 3032 3033
2928 2927 2926 2925 2924 2923 2921 2920 2919 2919 2919 2919 2920 2920 2921 2921 2922 2922 2923 2923 2922 2922 2921 2921 2920 2919 2918 2918 2918 2919 2921 2922 2924 2926 2927 2929 2930 2932 2935 2937 2938 2940 2943 2946 2949 2951 2954 2957 2960 2964 2967 2970 2974 2979 2983 2986 2989 2991 2994 2997 3000 3003 3006 3009 3012 3014 3016 3017 3018 3018 3019 3020 3021 3021 3022 3024 3025 3025 3025 3025 3026 3027 3028 3029 3030
2925 2923 2922 2921 2920 2919 2917 2916 2914 2913 2913 2913 2914 2914 2915 2916 2916 2916 2917 2918 2918 2917 2917 2916 2915 2914 2913 2913 2912 2912 2914 2915 2917 2918 2920 2922 2923 2925 2928 2930 2932 2934 2936 2939 2943 2946 2948 2951 2954 2957 2960 2963 2968 2972 2976 2979 2982 2985 2989 2992 2995 2998 3001 3004 3006 3008 3011 3012 3012 3014 3016 3016 3017 3018 3019 3020 3021 3022 3022 3022 3023 3024 3025 3026 3027
2922 2921 2919 2918 2916 2915 2913 2912 2910 2909 2908 2908 2908 2909 2909 2910 2910 2910 2911 2912 2913 2912 2912 2912 2911 2910 2908 2908 2907 2907 2907 2909 2910 2911 2913 2915 2916 2918 2921 2923 2925 2927 2930 2932 2936 2940 2943 2945 2947 2950 2953 2956 2961 2966 2970 2973 2976 2979 2983 2987 2989 2992 2995 2998 3001 3004 3005 3006 3007 3010 3012 3013 3013 3015 3016 3017 3018 3019 3019 3020 3020 3021 3022 3023 3024
2919 2918 2916 2914 2913 2911 2910 2908 2907 2905 2904 2903 2903 2903 2904 2904 2904 2904 2905 2906 2907 2908 2907 2907 2907 2906 2904 2903 2902 2902 2901 2902 2903 2904 2906 2908 2909 2911 2913 2915 2917 2920 2923 2926 2929 2933 2936 2939 2941 2944 2947 2950 2954 2960 2964 2966 2969 2973 2977 2981 2983 2986 2990 2994 2997 2999 3000 3002 3004 3006 3008 3009 3010 3011 3012 3013 3014 3015 3016 3016 3017 3018 3019 3020 3021
2915 2914 2913 2912 2910 2908 2906 2905 2903 2902 2901 2900 2899 2898 2898 2898 2898 2899 2899 2900 2901 2902 2902 2902 2902 2902 2900 2899 2898 2897 2896 2897 2897 2898 2899 2901 2902 2904 2906 2908 2910 2913 2916 2919 2923 2926 2930 2933 2936 2939 2941 2943 2947 2953 2957 2961 2964 2968 2971 2974 2978 2982 2987 2990 2992 2993 2995 2997 2999 3002 3003 3005 3005 3006 3007 3009 3011 3012 3012 3013 3014 3015 3016 3017 3018
2912 2911 2910 2908 2907 2905 2903 2901 2900 2898 2897 2896 2895 2894 2894 2893 2893 2893 2894 2894 2895 2896 2897 2897 2897 2897 2896 2895 2894 2893 2892 2892 2892 2892 2893 2894 2896 2897 2898 2901 2903 2905 2908 2912 2916 2919 2923 2927 2930 2933 2936 2937 2941 2947 2952 2955 2958 2962 2965 2969 2973 2978 2982 2984 2986 2988 2990 2992 2994 2996 2998 3000 3001 3002 3003 3005 3007 3008 3009 3010 3010 3011 3013 3015 3016
2909 2908 2906 2905 2904 2902 2900 2898 2897 2895 2894 2892 2891 2891 2890 2889 2888 2888 2888 2889 2889 2890 2891 2892 2892 2892 2892 2891 2890 2889 2888 2887 2887 2887 2887 2888 2889 2890 2892 2894 2896 2898 2901 2904 2908 2913 2916 2920 2924 2928 2931 2933 2936 2941 2946 2950 2952 2955 2959 2964 2968 2971 2974 2977 2980 2982 2984 2986 2989 2991 2993 2995 2997 2998 3000 3002 3003 3005 3006 3006 3007 3009 3010 3012 3013
2905 2904 2903 2902 2901 2899 2898 2896 2894 2892 2891 2889 2888 2887 2886 2885 2884 2883 2883 2883 2884 2884 2885 2886 2887 2887 2888 2887 2886 2884 2884 2883 2882 2882 2882 2883 2884 2885 2886 2888 2890 2892 2894 2897 2901 2906 2909 2913 2917 2922 2926 2928 2931 2935 2940 2944 2946 2949 2954 2958 2962 2965 2968 2971 2973 2976 2978 2981 2983 2986 2989 2991 2993 2995 2996 2998 3000 3001 3002 3003 3004 3006 3007 3009 3010
2902 2901 2900 2899 2898 2896 2895 2893 2892 2890 2888 2886 2885 2883 2882 2881 2880 2879 2878 2878 2878 2879 2880 2881 2881 2882 2882 2882 2882 2881 2880 2879 2878 2878 2878 2878 2878 2879 2880 2882 2884 2886 2888 2891 2894 2898 2902 2906 2910 2915 2921 2924 2926 2930 2934 2938 2940 2944 2948 2952 2955 2958 2962 2965 2968 2970 2973 2976 2979 2982 2985 2988 2990 2991 2993 2994 2996 2997 2999 3000 3001 3003 3004 3006 3007
2898 2897 2897 2896 2895 2893 2892 2891 2889 2887 2885 2883 2882 2880 2878 2877 2876 2875 2874 2874 2873 2874 2874 2875 2876 2877 2877 2877 2877 2877 2876 2875 2874 2874 2873 2873 2873 2874 2875 2876 2878 2880 2882 2885 2888 2891 2895 2899 2903 2908 2915 2919 2920 2923 2928 2931 2934 2937 2942 2946 2950 2953 2956 2960 2963 2965 2968 2971 2975 2978 2982 2984 2986 2987 2989 2990 2992 2993 2994 2996 2997 2999 3001 3002 3004
2895 2894 2893 2892 2892 2890 2889 2888 2887 2885 2883 2881 2879 2877 2875 2874 2872 2871 2870 2869 2869 2869 2869 2870 2870 2871 2871 2872 2872 2872 2872 2871 2870 2870 2869 2868 2868 2868 2869 2870 2872 2874 2875 2878 2881 2884 2888 2892 2897 2902 2908 2911 2913 2916 2921 2925 2928 2932 2935 2939 2943 2946 2950 2954 2958 2961 2964 2968 2971 2974 2978 2981 2982 2983 2984 2986 2987 2989 2990 2992 2994 2996 2998 2999 3001
2891 2891 2890 2889 2888 2887 2886 2885 2884 2882 2881 2879 2877 2875 2873 2871 2869 2867 2866 2865 2865 2865 2865 2865 2865 2865 2866 2867 2867 2867 2867 2867 2866 2866 2865 2864 2864 2864 2864 2865 2867 2868 2870 2872 2876 2879 2882 2886 2891 2896 2900 2904 2907 2910 2914 2919 2922 2925 2928 2931 2935 2940 2945 2950 2954 2957 2960 2964 2967 2970 2973 2976 2977 2978 2980 2981 2983 2985 2987 2988 2990 2993 2995 2996 2998
2888 2887 2886 2885 2885 2884 2883 2882 2881 2880 2878 2876 2875 2873 2871 2869 2867 2865 2862 2860 2860 2860 2860 2861 2861 2861 2861 2862 2862 2863 2863 2863 2862 2861 2861 2861 2860 2860 2860 2861 2862 2863 2865 2867 2871 2873 2876 2880 2885 2889 2893 2896 2899 2903 2907 2911 2914 2917 2921 2925 2930 2935 2941 2945 2948 2951 2954 2958 2962 2965 2968 2970 2972 2974 2975 2977 2979 2981 2983 2985 2987 2989 2991 2993 2994
2884 2883 2883 2882 2881 2880 2880 2879 2877 2876 2875 2874 2872 2870 2868 2866 2865 2863 2860 2858 2856 2855 2856 2856 2857 2856 2857 2857 2857 2857 2858 2859 2858 2858 2857 2857 2856 2856 2856 2857 2858 2859 2860 2863 2865 2867 2870 2874 2879 2882 2886 2889 2893 2896 2900 2904 2908 2911 2915 2919 2924 2929 2934 2938 2941 2945 2949 2953 2956 2959 2962 2965 2967 2969 2971 2973 2975 2977 2979 2981 2983 2986 2987 2989 2991
2881 2880 2879 2879 2878 2877 2876 2875 2874 2873 2872 2871 2870 2868 2867 2864 2862 2860 2859 2857 2854 2852 2851 2852 2852 2852 2852 2853 2853 2853 2853 2854 2854 2854 2853 2853 2852 2853 2853 2853 2854 2855 2856 2858 2860 2862 2864 2868 2873 2876 2880 2884 2887 2891 2895 2899 2902 2906 2910 2913 2918 2922 2927 2931 2935 2940 2944 2947 2951 2954 2958 2961 2963 2965 2967 2969 2972 2973 2975 2977 2980 2982 2984 2986 2988
2878 2877 2877 2876 2875 2874 2873 2872 2871 2870 2869 2867 2866 2865 2864 2863 2861 2859 2857 2855 2853 2851 2849 2848 2848 2848 2848 2849 2849 2849 2848 2848 2849 2849 2849 2849 2849 2849 2849 2850 2850 2851 2853 2854 2855 2856 2859 2863 2867 2871 2875 2879 2882 2886 2889 2894 2897 2901 2905 2909 2913 2917 2921 2925 2930 2935 2938 2942 2946 2950 2953 2956 2959 2961 2963 2965 2968 2970 2971 2974 2976 2978 2981 2983 2985
2875 2874 2874 2873 2872 2871 2870 2869 2868 2867 2866 2865 2863 2861 2860 2860 2859 2858 2856 2853 2851 2849 2847 2845 2844 2844 2844 2844 2844 2845 2845 2845 2845 2845 2845 2845 2845 2845 2845 2846 2847 2848 2849 2850 2850 2852 2855 2858 2862 2866 2870 2874 2877 2881 2884 2888 2892 2896 2900 2904 2908 2912 2917 2921 2926 2930 2934 2937 2941 2945 2949 2952 2955 2957 2959 2961 2964 2965 2967 2970 2972 2975 2977 2980 2982
2871 2871 2870 2870 2869 2868 2867 2866 2865 2864 2863 2862 2860 2859 2857 2855 2854 2854 2853 2852 2850 2847 2845 2843 2841 2840 2840 2840 2840 2841 2841 2842 2841 2841 2842 2842 2841 2841 2842 2842 2843 2844 2845 2846 2847 2849 2851 2854 2858 2862 2866 2869 2873 2876 2880 2884 2887 2891 2895 2900 2904 2909 2914 2918 2922 2926 2929 2933 2937 2941 2945 2948 2950 2953 2955 2957 2959 2961 2963 2966 2968 2971 2974 2976 2978
2868 2868 2867 2866 2866 2865 2864 2863 2862 2861 2860 2859 2857 2856 2855 2853 2851 2849 2848 2847 2846 2845 2843 2842 2839 2837 2837 2837 2836 2837 2837 2838 2838 2838 2838 2838 2838 2837 2838 2839 2840 2841 2842 2843 2844 2846 2848 2851 2854 2857 2861 2865 2868 2872 2875 2879 2883 2886 2890 2895 2900 2905 2910 2914 2918 2921 2925 2929 2933 2937 2940 2943 2946 2948 2950 2953 2955 2957 2959 2961 2964 2967 2970 2973 2975
2866 2865 2864 2863 2862 2862 2861 2860 2859 2858 2857 2856 2855 2853 2852 2850 2849 2847 2845 2843 2842 2841 2840 2839 2837 2835 2833 2833 2833 2833 2834 2834 2834 2834 2834 2834 2834 2834 2834 2835 2836 2838 2839 2840 2842 2844 2845 2848 2850 2854 2857 2861 2864 2867 2871 2875 2878 2882 2886 2891 2895 2900 2905 2909 2913 2917 2921 2925 2929 2932 2936 2938 2941 2943 2946 2948 2950 2952 2955 2957 2960 2963 2966 2970 2972
2863 2862 2861 2860 2860 2859 2858 2857 2856 2855 2854 2853 2852 2850 2849 2848 2846 2844 2843 2841 2838 2837 2836 2835 2834 2832 2831 2830 2829 2830 2830 2831 2831 2831 2831 2831 2830 2830 2830 2831 2833 2834 2835 2837 2839 2841 2843 2845 2847 2850 2854 2857 2860 2864 2867 2871 2875 2879 2883 2887 2891 2896 2900 2904 2908 2912 2916 2920 2924 2928 2931 2934 2936 2939 2941 2943 2946 2949 2951 2954 2957 2960 2963 2966 2968
2860 2859 2858 2857 2857 2856 2855 2854 2853 2852 2851 2849 2848 2847 2846 2845 2844 2842 2840 2838 2836 2834 2833 2832 2830 2829 2828 2827 2826 2826 2827 2827 2827 2827 2827 2827 2827 2827 2827 2828 2829 2830 2832 2833 2835 2838 2840 2842 2844 2846 2850 2853 2856 2860 2864 2868 2871 2875 2880 2883 2887 2891 2895 2899 2903 2907 2911 2915 2919 2923 2926 2929 2932 2934 2937 2939 2942 2944 2947 2950 2953 2956 2959 2961 2964
2856 2856 2855 2854 2853 2853 2852 2851 2850 2848 2847 2846 2845 2844 2843 2842 2841 2839 2838 2836 2834 2832 2830 2829 2827 2826 2824 2824 2823 2823 2823 2824 2824 2824 2824 2824 2823 2823 2823 2824 2826 2827 2828 2830 2832 2833 2836 2838 2840 2842 2845 2849 2852 2856 2859 2864 2868 2872 2875 2879 2883 2887 2891 2894 2898 2902 2906 2910 2914 2918 2921 2924 2927 2930 2932 2935 2938 2940 2943 2946 2949 2951 2954 2957 2960
2853 2852 2851 2850 2850 2849 2848 2847 2846 2845 2844 2843 2841 2840 2839 2838 2837 2836 2835 2833 2832 2830 2828 2826 2825 2823 2821 2820 2819 2819 2820 2820 2821 2821 2821 2821 2820 2820 2820 2821 2822 2823 2825 2827 2828 2830 2832 2834 2836 2838 2841 2844 2847 2851 2855 2859 2863 2867 2871 2875 2878 2882 2885 2889 2892 2896 2900 2904 2908 2912 2916 2919 2922 2926 2928 2931 2934 2937 2940 2942 2945 2948 2950 2954 2957
2850 2849 2848 2847 2846 2845 2844 2843 2842 2841 2840 2839 2838 2837 2836 2835 2834 2833 2832 2830 2829 2827 2826 2824 2822 2820 2819 2817 2816 2816 2816 2817 2817 2817 2818 2818 2818 2817 2817 2818 2819 2820 2822 2823 2825 2826 2828 2830 2833 2835 2837 2840 2843 2847 2850 2854 2858 2862 2866 2869 2873 2877 2881 2884 2888 2892 2896 2900 2904 2908 2911 2915 2918 2921 2924 2927 2930 2933 2936 2939 2942 2945 2948 2951 2954
2846 2845 2844 2843 2842 2841 2840 2839 2838 2837 2836 2834 2833 2833 2832 2831 2830 2829 2828 2827 2826 2825 2823 2821 2819 2818 2816 2815 2813 2813 2813 2813 2814 2814 2815 2815 2815 2814 2814 2814 2815 2817 2818 2820 2821 2823 2825 2827 2829 2832 2834 2837 2840 2843 2846 2850 2853 2857 2860 2864 2868 2872 2876 2880 2884 2888 2892 2896 2900 2903 2907 2911 2914 2917 2920 2924 2927 2930 2933 2936 2939 2942 2945 2948 2951
2842 2841 2840 2839 2839 2838 2837 2836 2835 2833 2832 2830 2829 2828 2828 2827 2826 2825 2825 2824 2823 2822 2820 2819 2817 2815 2814 2812 2811 2810 2810 2810 2811 2811 2812 2812 2812 2812 2812 2811 2812 2813 2815 2816 2818 2820 2822 2824 2826 2828 2831 2834 2837 2840 2843 2846 2849 2852 2856 2859 2863 2867 2871 2875 2880 2884 2888 2892 2896 2899 2903 2907 2911 2914 2917 2921 2924 2927 2930 2933 2935 2938 2941 2944 2947
2838 2837 2836 2835 2835 2834 2833 2832 2831 2829 2828 2827 2825 2824 2823 2823 2822 2822 2821 2820 2819 2818 2817 2816 2814 2813 2811 2810 2809 2808 2807 2807 2807 2808 2808 2808 2808 2809 2809 2809 2809 2810 2812 2813 2815 2817 2819 2821 2823 2825 2828 2830 2833 2836 2839 2842 2845 2848 2851 2855 2858 2862 2866 2871 2875 2879 2883 2887 2891 2895 2899 2903 2907 2910 2914 2917 2920 2923 2926 2929 2932 2935 2938 2940 2943
2834 2833 2832 2831 2831 2830 2829 2828 2827 2826 2824 2823 2821 2820 2820 2819 2818 2818 2817 2816 2816 2815 2814 2812 2811 2810 2809 2807 2806 2805 2805 2805 2805 2805 2805 2805 2805 2806 2806 2806 2807 2808 2809 2810 2812 2813 2815 2818 2820 2822 2825 2827 2830 2832 2835 2838 2841 2844 2847 2850 2854 2857 2861 2865 2870 2874 2878 2883 2887 2891 2894 2898 2902 2906 2909 2913 2916 2919 2922 2925 2928 2931 2934 2936 2939
2830 2829 2828 2827 2827 2826 2825 2824 2823 2822 2821 2820 2818 2817 2816 2816 2815 2814 2813 2813 2812 2812 2811 2809 2808 2807 2806 2804 2803 2803 2802 2802 2801 2801 2802 2802 2803 2803 2803 2803 2804 2805 2806 2807 2809 2810 2812 2814 2816 2819 2821 2824 2826 2829 2832 2834 2837 2840 2843 2847 2850 2853 2857 2862 2866 2870 2874 2878 2882 2886 2890 2894 2898 2901 2904 2908 2912 2915 2918 2921 2924 2926 2929 2932 2935
2826 2825 2824 2824 2823 2822 2821 2820 2819 2818 2817 2816 2815 2814 2813 2813 2812 2811 2810 2810 2809 2808 2808 2806 2805 2804 2803 2802 2801 2800 2799 2799 2798 2798 2799 2799 2800 2800 2800 2800 2801 2801 2802 2803 2805 2807 2809 2811 2813 2815 2818 2820 2823 2825 2828 2831 2833 2837 2840 2843 2846 2850 2854 2857 2861 2865 2869 2872 2876 2881 2885 2889 2893 2897 2900 2904 2907 2910 2914 2917 2919 2922 2925 2928 2931
2823 2822 2821 2820 2819 2818 2818 2817 2816 2815 2814 2813 2812 2811 2811 2810 2810 2809 2808 2807 2807 2806 2805 2804 2803 2801 2800 2799 2798 2797 2797 2796 2796 2796 2796 2796 2797 2797 2797 2797 2797 2798 2799 2800 2801 2803 2805 2807 2809 2812 2814 2816 2819 2822 2824 2827 2830 2833 2836 2839 2842 2846 2849 2853 2857 2860 2864 2868 2872 2876 2880 2884 2888 2892 2896 2899 2903 2906 2909 2912 2915 2918 2921 2924 2927
2820 2819 2818 2817 2816 2815 2814 2813 2813 2812 2811 2810 2809 2809 2808 2808 2808 2807 2806 2805 2805 2804 2803 2802 2800 2799 2798 2797 2796 2795 2794 2794 2794 2794 2794 2794 2794 2795 2795 2795 2795 2795 2796 2797 2798 2799 2801 2804 2806 2808 2810 2813 2815 2818 2821 2823 2826 2829 2832 2835 2838 2842 2846 2849 2853 2857 2860 2864 2868 2872 2876 2880 2884 2888 2891 2895 2898 2902 2905 2908 2911 2914 2917 2920 2922
2818 2817 2815 2814 2813 2812 2811 2811 2810 2809 2808 2807 2807 2807 2806 2806 2806 2805 2804 2804 2803 2802 2801 2800 2799 2797 2796 2794 2793 2793 2792 2792 2791 2791 2791 2791 2792 2792 2792 2792 2792 2792 2793 2794 2795 2796 2798 2800 2802 2804 2807 2809 2812 2814 2817 2820 2823 2826 2829 2832 2835 2838 2842 2845 2849 2852 2856 2860 2864 2868 2872 2876 2879 2883 2887 2891 2894 2898 2901 2904 2907 2910 2913 2916 2918
2816 2814 2813 2812 2811 2810 2809 2808 2807 2806 2805 2805 2805 2805 2805 2804 2804 2803 2803 2802 2801 2800 2799 2798 2797 2796 2794 2793 2792 2791 2790 2789 2789 2789 2789 2789 2789 2789 2790 2790 2790 2790 2790 2791 2792 2793 2795 2796 2798 2801 2803 2805 2808 2810 2813 2816 2819 2822 2825 2828 2832 2835 2838 2842 2845 2849 2852 2856 2860 2864 2868 2872 2876 2880 2883 2887 2891 2894 2897 2900 2903 2906 2909 2912 2914
2813 2812 2811 2810 2808 2807 2806 2805 2804 2804 2803 2803 2803 2803 2803 2802 2802 2801 2801 2800 2799 2798 2797 2796 2795 2794 2793 2792 2790 2789 2788 2788 2787 2787 2787 2787 2787 2787 2787 2787 2787 2787 2788 2788 2789 2790 2792 2793 2795 2797 2799 2802 2804 2807 2809 2812 2815 2818 2821 2825 2828 2832 2835 2839 2842 2846 2849 2853 2857 2861 2865 2869 2873 2877 2881 2884 2888 2891 2894 2897 2899 2902 2905 2908 2910